Location: Llanfihangel-Ystrad
(52.1833°N, 4.1667°W)
Time: 23:40:41
(UTC+00:00)

SKYMED 2 - Pass Details

Date: 17 February 2020
Orbit: 621 x 623 km, 97.9° (Epoch: 09 April)

Event Time Altitude Azimuth Distance (km) Brightness Sun altitude
Rises 04:49:41 0° 150° (SSE) 2,895 7.2 -25.0°
Reaches altitude 10° 04:51:54 10° 146° (SE) 1,993 6.4 -24.7°
Maximum altitude 04:56:07 53° 70° (ENE) 771 4.3 -24.0°
Drops below altitude 10° 05:00:22 10° 354° (N) 2,009 6.2 -23.4°
Sets 05:02:36 0° 350° (N) 2,920 7.0 -23.0°
